Time,TemperatureF,DewpointF,PressureIn,WindDirection,WindDirectionDegrees,WindSpeedMPH,WindSpeedGustMPH,Humidity,HourlyPrecipIn,Conditions,Clouds,dailyrainin,SolarRadiationWatts/m^2,SoftwareType,DateUTC
2013-03-02 00:02:00,35.0,30.0,-100.00,NW,308,3.0,6.0,81,0.00,,,0.00,0.000000,,2013-03-02 05:02:00,
2013-03-02 00:23:00,35.0,30.0,-100.00,NW,308,3.0,6.0,81,0.00,,,0.00,0.000000,,2013-03-02 05:23:00,
2013-03-02 00:32:00,35.0,30.0,-100.00,NW,308,3.0,6.0,81,0.00,,,0.00,0.000000,,2013-03-02 05:32:00,
2013-03-02 00:42:00,35.0,30.0,-100.00,NW,308,3.0,6.0,81,0.00,,,0.00,0.000000,,2013-03-02 05:42:00,
2013-03-02 00:52:00,35.0,30.0,-100.00,NW,308,3.0,6.0,81,0.00,,,0.00,0.000000,,2013-03-02 05:52:00,
2013-03-02 01:32:00,34.0,30.0,-100.00,NW,308,3.0,8.0,85,0.00,,,0.00,0.000000,,2013-03-02 06:32:00,
2013-03-02 01:42:00,34.0,30.0,-100.00,NW,308,3.0,8.0,85,0.00,,,0.00,0.000000,,2013-03-02 06:42:00,
2013-03-02 01:52:00,34.0,30.0,-100.00,NW,308,3.0,8.0,85,0.00,,,0.00,0.000000,,2013-03-02 06:52:00,
2013-03-02 02:01:00,34.0,30.0,-100.00,NW,308,3.0,8.0,85,0.00,,,0.00,0.000000,,2013-03-02 07:01:00,
2013-03-02 02:22:00,33.0,30.0,-100.00,NW,311,3.0,9.0,87,0.00,,,0.00,0.000000,,2013-03-02 07:22:00,
2013-03-02 02:32:00,33.0,30.0,-100.00,NW,311,3.0,9.0,87,0.00,,,0.00,0.000000,,2013-03-02 07:32:00,
2013-03-02 02:42:00,33.0,30.0,-100.00,NW,311,3.0,9.0,87,0.00,,,0.00,0.000000,,2013-03-02 07:42:00,
2013-03-02 02:52:00,33.0,30.0,-100.00,NW,311,3.0,9.0,87,0.00,,,0.00,0.000000,,2013-03-02 07:52:00,
2013-03-02 03:01:00,33.0,30.0,-100.00,NW,311,3.0,9.0,87,0.00,,,0.00,0.000000,,2013-03-02 08:01:00,
2013-03-02 03:02:00,33.0,30.0,-100.00,NW,308,3.0,7.0,87,0.00,,,0.00,0.000000,,2013-03-02 08:02:00,
2013-03-02 03:32:00,33.0,30.0,-100.00,NW,308,3.0,7.0,87,0.00,,,0.00,0.000000,,2013-03-02 08:32:00,
2013-03-02 03:43:00,33.0,30.0,-100.00,NW,308,3.0,7.0,87,0.00,,,0.00,0.000000,,2013-03-02 08:43:00,
2013-03-02 03:52:00,33.0,30.0,-100.00,NW,308,3.0,7.0,87,0.00,,,0.00,0.000000,,2013-03-02 08:52:00,
2013-03-02 04:22:00,33.0,31.0,-100.00,NW,307,3.0,9.0,91,0.00,,,0.00,0.000000,,2013-03-02 09:22:00,
2013-03-02 04:32:00,33.0,31.0,-100.00,NW,307,3.0,9.0,91,0.00,,,0.00,0.000000,,2013-03-02 09:32:00,
2013-03-02 04:42:00,33.0,31.0,-100.00,NW,307,3.0,9.0,91,0.00,,,0.00,0.000000,,2013-03-02 09:42:00,
2013-03-02 04:52:00,33.0,31.0,-100.00,NW,307,3.0,9.0,91,0.00,,,0.00,0.000000,,2013-03-02 09:52:00,
2013-03-02 05:01:00,33.0,31.0,-100.00,NW,307,3.0,9.0,91,0.00,,,0.00,0.000000,,2013-03-02 10:01:00,
2013-03-02 05:32:00,32.0,31.0,-100.00,NW,308,2.0,7.0,95,0.00,,,0.00,0.000000,,2013-03-02 10:32:00,
2013-03-02 05:43:00,32.0,31.0,-100.00,NW,308,2.0,7.0,95,0.00,,,0.00,0.000000,,2013-03-02 10:43:00,
2013-03-02 05:52:00,32.0,31.0,-100.00,NW,308,2.0,7.0,95,0.00,,,0.00,0.000000,,2013-03-02 10:52:00,
2013-03-02 06:01:00,32.0,31.0,-100.00,NW,308,2.0,7.0,95,0.00,,,0.00,0.000000,,2013-03-02 11:01:00,
2013-03-02 06:02:00,31.0,29.0,-100.00,NW,310,3.0,5.0,93,0.00,,,0.00,0.000000,,2013-03-02 11:02:00,
2013-03-02 06:32:00,31.0,29.0,-100.00,NW,310,3.0,5.0,93,0.00,,,0.00,0.000000,,2013-03-02 11:32:00,
2013-03-02 06:42:00,31.0,29.0,-100.00,NW,310,3.0,5.0,93,0.00,,,0.00,0.000000,,2013-03-02 11:42:00,
2013-03-02 06:52:00,31.0,29.0,-100.00,NW,310,3.0,5.0,93,0.00,,,0.00,0.000000,,2013-03-02 11:52:00,
2013-03-02 07:22:00,30.0,28.0,-100.00,WNW,297,2.0,5.0,93,0.00,,,0.00,0.000000,,2013-03-02 12:22:00,
2013-03-02 07:33:00,30.0,28.0,-100.00,WNW,297,2.0,5.0,93,0.00,,,0.00,0.000000,,2013-03-02 12:33:00,
2013-03-02 07:43:00,30.0,28.0,-100.00,WNW,297,2.0,5.0,93,0.00,,,0.00,0.000000,,2013-03-02 12:43:00,
2013-03-02 07:53:00,30.0,28.0,-100.00,WNW,297,2.0,5.0,93,0.00,,,0.00,0.000000,,2013-03-02 12:53:00,
2013-03-02 08:01:00,30.0,28.0,-100.00,WNW,297,2.0,5.0,93,0.00,,,0.00,0.000000,,2013-03-02 13:01:00,
2013-03-02 08:22:00,32.0,29.0,-100.00,NW,312,4.0,5.0,88,0.00,,,0.00,23.000000,,2013-03-02 13:22:00,
2013-03-02 08:32:00,32.0,29.0,-100.00,NW,312,4.0,5.0,88,0.00,,,0.00,23.000000,,2013-03-02 13:32:00,
2013-03-02 08:42:00,32.0,29.0,-100.00,NW,312,4.0,5.0,88,0.00,,,0.00,23.000000,,2013-03-02 13:42:00,
2013-03-02 08:52:00,32.0,29.0,-100.00,NW,312,4.0,5.0,88,0.00,,,0.00,23.000000,,2013-03-02 13:52:00,
2013-03-02 09:01:00,32.0,29.0,-100.00,NW,312,4.0,5.0,88,0.00,,,0.00,23.000000,,2013-03-02 14:01:00,
2013-03-02 09:02:00,36.0,31.0,-100.00,NW,306,3.0,8.0,81,0.00,,,-99.99,97.000000,,2013-03-02 14:02:00,
2013-03-02 09:22:00,36.0,31.0,-100.00,NW,306,3.0,8.0,81,0.00,,,-99.99,97.000000,,2013-03-02 14:22:00,
2013-03-02 09:32:00,36.0,31.0,-100.00,NW,306,3.0,8.0,81,0.00,,,-99.99,97.000000,,2013-03-02 14:32:00,
2013-03-02 09:42:00,36.0,31.0,-100.00,NW,306,3.0,8.0,81,0.00,,,-99.99,97.000000,,2013-03-02 14:42:00,
2013-03-02 09:52:00,36.0,31.0,-100.00,NW,306,3.0,8.0,81,0.00,,,-99.99,97.000000,,2013-03-02 14:52:00,
2013-03-02 10:02:00,39.0,27.0,-100.00,NW,312,6.0,11.0,63,0.00,,,0.00,163.000000,,2013-03-02 15:02:00,
2013-03-02 10:32:00,39.0,27.0,-100.00,NW,312,6.0,11.0,63,0.00,,,0.00,163.000000,,2013-03-02 15:32:00,
2013-03-02 10:42:00,39.0,27.0,-100.00,NW,312,6.0,11.0,63,0.00,,,0.00,163.000000,,2013-03-02 15:42:00,
2013-03-02 10:52:00,39.0,27.0,-100.00,NW,312,6.0,11.0,63,0.00,,,0.00,163.000000,,2013-03-02 15:52:00,
2013-03-02 11:22:00,39.0,26.0,-100.00,NW,322,7.0,10.0,60,0.00,,,0.00,289.000000,,2013-03-02 16:22:00,
2013-03-02 11:32:00,39.0,26.0,-100.00,NW,322,7.0,10.0,60,0.00,,,0.00,289.000000,,2013-03-02 16:32:00,
2013-03-02 11:42:00,39.0,26.0,-100.00,NW,322,7.0,10.0,60,0.00,,,0.00,289.000000,,2013-03-02 16:42:00,
2013-03-02 11:52:00,39.0,26.0,-100.00,NW,322,7.0,10.0,60,0.00,,,0.00,289.000000,,2013-03-02 16:52:00,
2013-03-02 12:01:00,39.0,26.0,-100.00,NW,322,7.0,10.0,60,0.00,,,0.00,289.000000,,2013-03-02 17:01:00,
2013-03-02 12:02:00,39.0,26.0,-100.00,NNW,335,7.0,11.0,59,0.00,,,0.00,185.000000,,2013-03-02 17:02:00,
2013-03-02 12:32:00,39.0,26.0,-100.00,NNW,335,7.0,11.0,59,0.00,,,0.00,185.000000,,2013-03-02 17:32:00,
2013-03-02 12:42:00,39.0,26.0,-100.00,NNW,335,7.0,11.0,59,0.00,,,0.00,185.000000,,2013-03-02 17:42:00,
2013-03-02 12:52:00,39.0,26.0,-100.00,NNW,335,7.0,11.0,59,0.00,,,0.00,185.000000,,2013-03-02 17:52:00,
2013-03-02 13:02:00,40.0,24.0,-100.00,NW,321,6.0,12.0,53,0.00,,,0.00,270.000000,,2013-03-02 18:02:00,
2013-03-02 13:32:00,40.0,24.0,-100.00,NW,321,6.0,12.0,53,0.00,,,0.00,270.000000,,2013-03-02 18:32:00,
2013-03-02 13:42:00,40.0,24.0,-100.00,NW,321,6.0,12.0,53,0.00,,,0.00,270.000000,,2013-03-02 18:42:00,
2013-03-02 13:52:00,40.0,24.0,-100.00,NW,321,6.0,12.0,53,0.00,,,0.00,270.000000,,2013-03-02 18:52:00,
2013-03-02 14:32:00,38.0,25.0,-100.00,NW,315,7.0,14.0,58,0.00,,,0.00,251.000000,,2013-03-02 19:32:00,
2013-03-02 14:43:00,38.0,25.0,-100.00,NW,315,7.0,14.0,58,0.00,,,0.00,251.000000,,2013-03-02 19:43:00,
2013-03-02 14:52:00,38.0,25.0,-100.00,NW,315,7.0,14.0,58,0.00,,,0.00,251.000000,,2013-03-02 19:52:00,
2013-03-02 15:01:00,38.0,25.0,-100.00,NW,315,7.0,14.0,58,0.00,,,0.00,251.000000,,2013-03-02 20:01:00,
2013-03-02 15:02:00,38.0,23.0,-100.00,NW,322,8.0,12.0,54,0.00,,,0.00,240.000000,,2013-03-02 20:02:00,
2013-03-02 15:22:00,38.0,23.0,-100.00,NW,322,8.0,12.0,54,0.00,,,0.00,240.000000,,2013-03-02 20:22:00,
2013-03-02 15:32:00,38.0,23.0,-100.00,NW,322,8.0,12.0,54,0.00,,,0.00,240.000000,,2013-03-02 20:32:00,
2013-03-02 15:42:00,38.0,23.0,-100.00,NW,322,8.0,12.0,54,0.00,,,0.00,240.000000,,2013-03-02 20:42:00,
2013-03-02 15:53:00,38.0,23.0,-100.00,NW,322,8.0,12.0,54,0.00,,,0.00,240.000000,,2013-03-02 20:53:00,
2013-03-02 16:02:00,36.0,23.0,-100.00,NW,318,7.0,14.0,60,0.00,,,0.00,103.000000,,2013-03-02 21:02:00,
2013-03-02 16:32:00,36.0,23.0,-100.00,NW,318,7.0,14.0,60,0.00,,,0.00,103.000000,,2013-03-02 21:32:00,
2013-03-02 16:42:00,36.0,23.0,-100.00,NW,318,7.0,14.0,60,0.00,,,0.00,103.000000,,2013-03-02 21:42:00,
2013-03-02 16:52:00,36.0,23.0,-100.00,NW,318,7.0,14.0,60,0.00,,,0.00,103.000000,,2013-03-02 21:52:00,
2013-03-02 17:32:00,36.0,23.0,-100.00,NW,324,6.0,11.0,60,0.00,,,0.00,89.000000,,2013-03-02 22:32:00,
2013-03-02 17:42:00,36.0,23.0,-100.00,NW,324,6.0,11.0,60,0.00,,,0.00,89.000000,,2013-03-02 22:42:00,
2013-03-02 17:52:00,36.0,23.0,-100.00,NW,324,6.0,11.0,60,0.00,,,0.00,89.000000,,2013-03-02 22:52:00,
2013-03-02 18:01:00,36.0,23.0,-100.00,NW,324,6.0,11.0,60,0.00,,,0.00,89.000000,,2013-03-02 23:01:00,
2013-03-02 18:02:00,35.0,24.0,-100.00,NNW,327,5.0,10.0,65,0.00,,,0.00,26.000000,,2013-03-02 23:02:00,
2013-03-02 18:32:00,35.0,24.0,-100.00,NNW,327,5.0,10.0,65,0.00,,,0.00,26.000000,,2013-03-02 23:32:00,
2013-03-02 18:42:00,35.0,24.0,-100.00,NNW,327,5.0,10.0,65,0.00,,,0.00,26.000000,,2013-03-02 23:42:00,
2013-03-02 18:52:00,35.0,24.0,-100.00,NNW,327,5.0,10.0,65,0.00,,,0.00,26.000000,,2013-03-02 23:52:00,
2013-03-02 19:32:00,35.0,26.0,-100.00,NW,319,5.0,10.0,68,0.00,,,0.00,5.000000,,2013-03-03 00:32:00,
2013-03-02 19:42:00,35.0,26.0,-100.00,NW,319,5.0,10.0,68,0.00,,,0.00,5.000000,,2013-03-03 00:42:00,
2013-03-02 19:52:00,35.0,26.0,-100.00,NW,319,5.0,10.0,68,0.00,,,0.00,5.000000,,2013-03-03 00:52:00,
2013-03-02 20:01:00,35.0,26.0,-100.00,NW,319,5.0,10.0,68,0.00,,,0.00,5.000000,,2013-03-03 01:01:00,
2013-03-02 20:32:00,34.0,25.0,-100.00,NNW,329,7.0,10.0,70,0.00,,,0.00,0.000000,,2013-03-03 01:32:00,
2013-03-02 20:42:00,34.0,25.0,-100.00,NNW,329,7.0,10.0,70,0.00,,,0.00,0.000000,,2013-03-03 01:42:00,
2013-03-02 20:52:00,34.0,25.0,-100.00,NNW,329,7.0,10.0,70,0.00,,,0.00,0.000000,,2013-03-03 01:52:00,
2013-03-02 21:01:00,34.0,25.0,-100.00,NNW,329,7.0,10.0,70,0.00,,,0.00,0.000000,,2013-03-03 02:01:00,
2013-03-02 21:32:00,34.0,25.0,-100.00,NNW,327,5.0,9.0,68,0.00,,,0.00,0.000000,,2013-03-03 02:32:00,
2013-03-02 21:42:00,34.0,25.0,-100.00,NNW,327,5.0,9.0,68,0.00,,,0.00,0.000000,,2013-03-03 02:42:00,
2013-03-02 21:52:00,34.0,25.0,-100.00,NNW,327,5.0,9.0,68,0.00,,,0.00,0.000000,,2013-03-03 02:52:00,
2013-03-02 22:01:00,34.0,25.0,-100.00,NNW,327,5.0,9.0,68,0.00,,,0.00,0.000000,,2013-03-03 03:01:00,
2013-03-02 22:32:00,33.0,22.0,-100.00,NNW,327,6.0,8.0,63,0.00,,,0.00,0.000000,,2013-03-03 03:32:00,
2013-03-02 22:42:00,33.0,22.0,-100.00,NNW,327,6.0,8.0,63,0.00,,,0.00,0.000000,,2013-03-03 03:42:00,
2013-03-02 22:52:00,33.0,22.0,-100.00,NNW,327,6.0,8.0,63,0.00,,,0.00,0.000000,,2013-03-03 03:52:00,
2013-03-02 23:01:00,33.0,22.0,-100.00,NNW,327,6.0,8.0,63,0.00,,,0.00,0.000000,,2013-03-03 04:01:00,
2013-03-02 23:02:00,32.0,20.0,-100.00,NNW,337,4.0,7.0,62,0.00,,,0.00,0.000000,,2013-03-03 04:02:00,
2013-03-02 23:32:00,32.0,20.0,-100.00,NNW,337,4.0,7.0,62,0.00,,,0.00,0.000000,,2013-03-03 04:32:00,
2013-03-02 23:42:00,32.0,20.0,-100.00,NNW,337,4.0,7.0,62,0.00,,,0.00,0.000000,,2013-03-03 04:42:00,
2013-03-02 23:52:00,32.0,20.0,-100.00,NNW,337,4.0,7.0,62,0.00,,,0.00,0.000000,,2013-03-03 04:52:00,